Charlotte, NC

10:05 AM EDT on August 26, 2016 (GMT -0400)
Charlotte-Douglas International

Weather History for KCLT - November, 2012

Change the Weather History Date:

Saturday, November 10, 2012

  Actual Average Record
Temperature  
Mean Temperature 52 °F 53 °F  
Max Temperature 72 °F 64 °F 83 °F (2006)
Min Temperature 31 °F 41 °F 28 °F (1973)
Degree Days  
Heating Degree Days 13 13  
Month to date heating degree days 160 113  
Since 1 July heating degree days 342 319  
Cooling Degree Days 0 0  
Month to date cooling degree days 0 0  
Year to date cooling degree days 1790 1513  
Growing Degree Days 1 (Base 50)    
Moisture  
Dew Point 33 °F    
Average Humidity 56    
Maximum Humidity 92    
Minimum Humidity 20    
Precipitation  
Precipitation 0.00 in 0.10 in 1.43 in (2009)
Month to date precipitation T 1.01  
Year to date precipitation 29.20 36.25  
Snow  
Snow 0.00 in 0.00 in T in (1955)
Month to date snowfall 0.0 0.0  
Since 1 July snowfall 0.0 0.0  
Since 1 September snowfall 0.0 0.0  
Snow Depth 0.00 in    
Sea Level Pressure  
Sea Level Pressure 30.32 in    
Wind  
Wind Speed 3 mph (South)    
Max Wind Speed 10 mph    
Max Gust Speed 14 mph    
Visibility 10 miles    
Events      
T = Trace of Precipitation, MM = Missing Value Source: NWS Daily Summary

Daily Weather History Graph

Daily Weather History Graph

Search for Another Location

Airport or City:

Trip Planner

Search our weather history database for the weather conditions in past years. The results will help you decide how hot, cold, wet, or windy it might be!

Date:

Astronomy

Nov. 10, 2012 Rise Set
Actual Time 6:54 AM EST 5:20 PM EST
Civil Twilight 6:27 AM EST 5:47 PM EST
Nautical Twilight 5:57 AM EST 6:18 PM EST
Astronomical Twilight 5:27 AM EST 6:47 PM EST
Moon 3:05 AM EST (11/10) 3:00 PM EST (11/10)
Length of Visible Light 11h 20m
Length of Day
10h 26m
Waning Crescent, 14% of the Moon is Illuminated
Nov 10
Waning Crescent
Nov 13
New
Nov 20
First Quarter
Nov 28
Full
Dec 6
Last Quarter

Hourly Weather History & Observations

Time (EST) Temp. Dew Point Humidity Pressure Visibility Wind Dir Wind Speed Gust Speed Precip Events Conditions
12:52 AM 44.1 °F 32.0 °F 63% 30.26 in 10.0 mi Calm Calm - N/A   Clear
1:52 AM 43.0 °F 34.0 °F 71% 30.27 in 10.0 mi Calm Calm - N/A   Clear
2:52 AM 41.0 °F 33.1 °F 73% 30.27 in 10.0 mi Calm Calm - N/A   Clear
3:52 AM 36.0 °F 33.1 °F 89% 30.27 in 10.0 mi Calm Calm - N/A   Clear
4:52 AM 33.1 °F 30.0 °F 89% 30.29 in 10.0 mi Calm Calm - N/A   Clear
5:52 AM 37.9 °F 33.1 °F 83% 30.30 in 10.0 mi Calm Calm - N/A   Clear
6:52 AM 32.0 °F 30.2 °F 93% 30.31 in 10.0 mi Calm Calm - N/A   Clear
7:52 AM 41.0 °F 35.1 °F 79% 30.35 in 10.0 mi Calm Calm - N/A   Partly Cloudy
8:52 AM 48.9 °F 37.0 °F 64% 30.36 in 10.0 mi SSE 3.5 mph - N/A   Partly Cloudy
9:52 AM 55.9 °F 37.9 °F 51% 30.36 in 10.0 mi Calm Calm - N/A   Partly Cloudy
10:52 AM 64.0 °F 35.1 °F 34% 30.36 in 10.0 mi South 5.8 mph - N/A   Partly Cloudy
11:52 AM 68.0 °F 35.1 °F 30% 30.34 in 10.0 mi SSW 9.2 mph - N/A   Partly Cloudy
12:52 PM 70.0 °F 33.1 °F 26% 30.31 in 10.0 mi SW 6.9 mph - N/A   Partly Cloudy
1:52 PM 71.1 °F 30.0 °F 22% 30.30 in 10.0 mi Variable 4.6 mph - N/A   Clear
2:52 PM 72.0 °F 28.9 °F 20% 30.29 in 10.0 mi SW 6.9 mph - N/A   Clear
3:52 PM 71.1 °F 32.0 °F 24% 30.30 in 10.0 mi South 8.1 mph - N/A   Clear
4:52 PM 68.0 °F 34.0 °F 28% 30.31 in 8.0 mi SSW 3.5 mph - N/A   Clear
5:52 PM 63.0 °F 30.9 °F 30% 30.32 in 10.0 mi Calm Calm - N/A   Clear
6:52 PM 57.9 °F 33.1 °F 39% 30.34 in 10.0 mi SE 3.5 mph - N/A   Clear
7:52 PM 55.9 °F 33.1 °F 42% 30.35 in 10.0 mi Calm Calm - N/A   Clear
8:52 PM 57.0 °F 33.1 °F 40% 30.36 in 10.0 mi South 3.5 mph - N/A   Clear
9:52 PM 52.0 °F 35.1 °F 53% 30.37 in 10.0 mi Calm Calm - N/A   Clear
10:52 PM 52.0 °F 34.0 °F 50% 30.38 in 10.0 mi SSE 3.5 mph - N/A   Clear
11:52 PM 48.9 °F 35.1 °F 59% 30.37 in 10.0 mi ESE 3.5 mph - N/A   Clear